Location: Newark
(34.0131°N, 4.3314°W)
Time: 14:14:36
(UTC+00:00)

Courier 1B - Pass Details

Date: 29 October 2019
Orbit: 963 x 1209 km, 28.3° (Epoch: 12 November)

Event Time Altitude Azimuth Distance (km) Brightness Sun altitude
Rises 21:07:55 0° 262° (W) 4,103 11.4 -45.9°
Reaches altitude 10° 21:12:50 10° 236° (SW) 3,138 10.4 -46.9°
Enters shadow 21:13:53 11° 228° (SW) 3,023 10.2 -47.1°
